Regional Weather Roundup
Issued by NWS

Home | Current Version | Previous Version | Graphics & Text | Print | Product List | Glossary On
Versions: 1 2 3 4 5 6 7 8 9 10 11 12 13 14 15 16 17 18 19 20 21 22 23 24 25 26 27 28 29 30 31 32 33 34 35 36 37 38 39 40 41 42 43 44 45 46 47 48 49 50
000
ASUS44 KMEG 131710
RWRTN
TENNESSEE HOURLY STATE WEATHER ROUNDUP
NATIONAL WEATHER SERVICE MEMPHIS TN
1200 PM CDT SUN JUL 13 2014

TNZ002-004-019-021-049-052-054-088>092-131800-
WEST TENNESSEE

CITY           SKY/WX    TMP DP  RH WIND       PRES   REMARKS
MEMPHIS INTL   MOSUNNY   90  74  59 SW8       30.08F HX  99
NWS MEMPHIS      N/A     89 N/A N/A MISG        N/A
JACKSON        MOSUNNY   89  74  60 SW8       30.08F HX  98
DYERSBURG      MOSUNNY   90  72  55 SW9G16    30.07F HX  96
UNION CITY     PTSUNNY   86  75  70 W6        30.06S HX  95
PARIS          MOSUNNY   88  74  63 SW12      30.08F HX  96
LEXINGTON      SUNNY     90  73  58 SW5       30.08F HX  98
SILERTON         N/A     90  73  57 S5          N/A  HX  98
SAVANNAH       SUNNY     89  73  59 SW5       30.10F HX  96
$$

TNZ008-025-027-028-033-062-065-066-131800-
NORTH MIDDLE TENNESSEE

CITY           SKY/WX    TMP DP  RH WIND       PRES   REMARKS
NASHVILLE      PTSUNNY   91  67  44 VRB5      30.08F HX  94
DICKSON        SUNNY     88  72  58 SW7       30.10F HX  94
PORTLAND       MOSUNNY   90  70  51 VRB7      30.07F HX  95
CLARKSVILLE    MOSUNNY   90  72  55 W10       30.06F HX  97
LEBANON        MOSUNNY   92  67  43 SW10      30.07F HX  95
SMYRNA         MOSUNNY   95  66  38 SW6       30.09F HX  98
MURFREESBORO   MOSUNNY   90  69  49 SW12      30.08F HX  94
COOKEVILLE     MOSUNNY   90  75  62 W6        30.11F HX 100
LIVINGSTON     MOSUNNY   87  69  54 SW9       30.12  HX  91
GALLATIN       SUNNY     93  69  45 VRB5      30.09F HX  98
CROSSVILLE     MOSUNNY   83  68  60 VRB6      30.17F
$$

TNZ061-075-076-078-094-096-097-131800-
SOUTH MIDDLE TENNESSEE

CITY           SKY/WX    TMP DP  RH WIND       PRES   REMARKS
LEWISBURG      PTSUNNY   91  70  50 VRB3      30.10F HX  96
FAYETTEVILLE   MOSUNNY   84  72  65 SW10      30.13F
TULLAHOMA      MOSUNNY   86  72  62 SW9       30.14F HX  92
WINCHESTER     MOSUNNY   90  73  58 SW9       30.13F HX  98
MCMINNVILLE    SUNNY     90  73  58 W10       30.11F HX  98
COLUMBIA       SUNNY     91  72  52 W7        30.09F HX  98
SHELBYVILLE    MOSUNNY   90  73  58 W7        30.12F HX  98
$$

TNZ017-018-042-046-047-131800-
NORTHEAST TENNESSEE

CITY           SKY/WX    TMP DP  RH WIND       PRES   REMARKS
TRI CITIES     PTSUNNY   87  66  49 W16       30.15F
ELIZABETHTON   MOSUNNY   82  68  61 W7        30.16F
$$

TNZ012-013-036-069-073-074-131800-
CENTRAL EAST TENNESSEE

CITY           SKY/WX    TMP DP  RH WIND       PRES   REMARKS
KNOXVILLE      PTSUNNY   88  68  51 SW10      30.11F HX  91
OAK RIDGE      MOSUNNY   88  70  55 VRB6      30.12F HX  93
GATLINBURG     MOSUNNY   90  68  48 W8        30.11F HX  93
MORRISTOWN     SUNNY     88  70  55 SW9       30.14F HX  92
$$

TNZ083-085-099-131800-
SOUTHEAST TENNESSEE

CITY           SKY/WX    TMP DP  RH WIND       PRES   REMARKS
CHATTANOOGA    PTSUNNY   90  68  48 S9        30.12F HX  94
$$

SKY/WX REPORTED AS FAIR MEANS FEW OR NO CLOUDS BELOW
12 THOUSAND FEET.




USA.gov is the U.S. government's official web portal to all federal, state and local government web resources and services.